Tracking 21612 objects as of 20-Oct-2020
HD Live streaming from Space Station
objects crossing your sky now

BEIDOU 2 G8

Track BEIDOU 2 G8 now!
BEIDOU 2 G8 is classified as:


NORAD ID: 44231
Int'l Code: 2019-027A
Perigee: 35,761.1 km
Apogee: 35,828.9 km
Inclination: 0.7 °
Period: 1,436.2 minutes
Semi major axis: 42166 km
RCS: Unknown
Launch date: May 17, 2019
Source: People's Republic of China (PRC)
Launch site: Xichang Space Center, China (XSC)
aabbcc
Your satellite tracking list
Your tracking list is empty




NASA's NSSDC Master Catalog

Two Line Element Set (TLE):
1 44231U 19027A   20293.90742207 -.00000259 +00000-0 +00000-0 0  9997
2 44231 000.7105 302.2211 0008043 271.2180 286.5456 01.00267260005360
Source of the keplerian elements: AFSPC